Location: Владивосток
(43.1151°N, 131.8856°E)
Time: 20:33:53
(UTC+10:00)

LO-87 - Pass Details

Date: 03 July 2022
Orbit: 451 x 466 km, 97.4° (Epoch: 13 August)

Event Time Altitude Azimuth Distance (km) Brightness Sun altitude
Exits shadow 01:01:41 44° 312° (NW) 654 ? -23.8°
Drops below altitude 10° 01:04:18 10° 340° (NNW) 1,623 ? -23.8°
Sets 01:06:24 0° 344° (NNW) 2,508 ? -23.8°
